logo
Search for airport 
image banner adimage banner adimage banner ad
image banner ad

OITL - Ardabil / Secondary International Aerodrome

Located in Ardabil, Iran, Islamic Republic of

ICAO - OITL, IATA - ADU

Data provided by Airmate  

General information

Coordinates: N38°19'36" E48°25'27"
Elevation is 4319 feet MSL.
 
Rated:
View ratings:
[VIEW]
View others Airports in Ardabil Province

Operational data

Special qualification required
Current time UTC:
Current local time:
Weather
METAR: OITL 251700Z 03006KT 9999 VCFG SCT020 SCT040CB BKN200 09/08 Q1019
TAF: TAF OITL 251400Z 2515/2524 07016KT 4000 BR -RA BKN005 FEW030CB BKN090 PROB40 TEMPO 2515/2517 07028KT 2000 TSRA BR OVC005 SCT025CB OVC070 BECMG 2517/2518 4000 SHRA BR BKN015 FEW030CB BKN080 PROB40 TEMPO 2520/2524 0500 FG DZ/TSRA
View NOTAMs / SUP AIP / TFR affecting this airport [VIEW]
Communications frequencies: [VIEW]

Runways:

RWY identifierQFULength (ft)Width (ft)SurfaceLDA (ft)
0775°8202148UNK
25255°8202148UNK
15150°10820148PEM
33330°10820148PEM

Airport contact information

Address: Ardabil Iran, Islamic Republic of

Satellite view of OITL